This is the latest recevied weather packets stored in our database for station/object N8WJW. If no packets are shown the sender has not sent any weather packets the latest 1 day(s).
| Time | Temp. | Humidity | Pressure | Rain* | Wind** | Luminosity | Snow |
|---|---|---|---|---|---|---|---|
| 1778070488 | 7.22° C | 99% | 1010.6 hPa | 0 mm | - | 44 W/m² | - |
| 1778069277 | 7.22° C | 99% | 1010.2 hPa | 0 mm | - | 29 W/m² | - |
| 1778068975 | 6.67° C | 99% | 1010.1 hPa | 0 mm | - | 23 W/m² | - |
| 1778068672 | 6.67° C | 99% | 1010.4 hPa | 0 mm | - | 19 W/m² | - |
| 1778067765 | 6.67° C | 99% | 1009.9 hPa | 0 mm | - | 22 W/m² | - |
| 1778066857 | 6.67° C | 99% | 1009.7 hPa | 0 mm | - | 10 W/m² | - |
| 1778065950 | 6.67° C | 99% | 1009.4 hPa | 0 mm | - | 8 W/m² | - |
| 1778064133 | 6.67° C | 99% | 1009.3 hPa | 0 mm | - | 4 W/m² | - |
| 1778063225 | 6.67° C | 99% | 1008.6 hPa | 0 mm | - | 2 W/m² | - |
| 1778062619 | 6.67° C | 99% | 1008.5 hPa | 0 mm | - | 1 W/m² | - |
| 1778062014 | 7.22° C | 99% | 1008.9 hPa | 0 mm | - | 0 W/m² | - |
| 1778061410 | 7.22° C | 99% | 1009 hPa | 0 mm | - | 0 W/m² | - |
| 1778060200 | 7.22° C | 99% | 1009.4 hPa | 0 mm | - | 0 W/m² | - |
| 1778059897 | 7.22° C | 99% | 1009.4 hPa | 0 mm | - | 0 W/m² | - |
| 1778058385 | 7.22° C | 99% | 1008.7 hPa | 0 mm | - | 0 W/m² | - |
| 1778057474 | 7.22° C | 99% | 1008.6 hPa | 0 mm | - | 0 W/m² | - |
| 1778056262 | 7.22° C | 99% | 1009.2 hPa | 0 mm | - | 0 W/m² | - |
| 1778055654 | 6.67° C | 99% | 1009.4 hPa | 0 mm | - | 0 W/m² | - |
| 1778055049 | 6.67° C | 99% | 1009.3 hPa | 0 mm | - | 0 W/m² | - |
| 1778054747 | 6.67° C | 99% | 1009.1 hPa | 0 mm | - | 0 W/m² | - |
| 1778054444 | 7.22° C | 99% | 1009.1 hPa | 0 mm | - | 0 W/m² | - |
| 1778054142 | 6.67° C | 99% | 1009 hPa | 0 mm | - | 0 W/m² | - |
| 1778053838 | 6.67° C | 99% | 1009.1 hPa | 0 mm | - | 0 W/m² | - |
| 1778053536 | 7.22° C | 99% | 1008.8 hPa | 0 mm | - | 0 W/m² | - |
| 1778052325 | 6.67° C | 99% | 1008.8 hPa | 0 mm | - | 0 W/m² | - |
* Rain latest hour (hover to see other rain measurements)
** Current wind speed in m/s (hover to see current wind gust speed)